H1 CPF 2 NER 2025 8 6 9 218 01 glonass129 H2 1106402 9129 37868 2025 8 6 0 0 0 2025 8 9 23 45 0 900 1 1 0 0 0 1 H9 10 0 60893 0.00000 0 -4388234.400 -11215814.509 22514093.768 10 0 60893 900.00000 0 -2798806.729 -13413923.167 21538661.342 10 0 60893 1800.00000 0 -1455420.328 -15602254.354 20145914.786 10 0 60893 2700.00000 0 -372679.657 -17714263.227 18362576.617 10 0 60893 3600.00000 0 447465.660 -19683400.141 16222968.903 10 0 60893 4500.00000 0 1015584.081 -21445776.891 13768372.378 10 0 60893 5400.00000 0 1354092.975 -22942746.657 11046247.255 10 0 60893 6300.00000 0 1496083.953 -24123289.711 8109328.863 10 0 60893 7200.00000 0 1483690.994 -24946103.950 5014614.188 10 0 60893 8100.00000 0 1366069.545 -25381310.982 1822258.051 10 0 60893 9000.00000 0 1197071.738 -25411703.936 -1405599.863 10 0 60893 9900.00000 0 1032716.637 -25033482.127 -4606053.845 10 0 60893 10800.00000 0 928563.817 -24256439.411 -7716672.058 10 0 60893 11700.00000 0 937103.470 -23103596.298 -10676731.782 10 0 60893 12600.00000 0 1105275.967 -21610289.944 -13428423.932 10 0 60893 13500.00000 0 1472228.702 -19822759.667 -15918001.326 10 0 60893 14400.00000 0 2067407.876 -17796287.507 -18096846.288 10 0 60893 15300.00000 0 2909068.527 -15592972.791 -19922434.961 10 0 60893 16200.00000 0 4003267.907 -13279235.380 -21359178.165 10 0 60893 17100.00000 0 5343386.294 -10923153.864 -22379121.480 10 0 60893 18000.00000 0 6910196.392 -8591751.848 -22962490.531 10 0 60893 18900.00000 0 8672478.757 -6348347.224 -23098070.973 10 0 60893 19800.00000 0 10588157.147 -4250076.132 -22783416.367 10 0 60893 20700.00000 0 12605905.466 -2345695.336 -22024880.837 10 0 60893 21600.00000 0 14667157.957 -673754.240 -20837477.089 10 0 60893 22500.00000 0 16708437.390 738788.419 -19244563.963 10 0 60893 23400.00000 0 18663902.753 1877447.441 -17277371.019 10 0 60893 24300.00000 0 20468009.069 2740559.356 -14974370.885 10 0 60893 25200.00000 0 22058167.668 3339084.450 -12380512.893 10 0 60893 26100.00000 0 23377295.657 3695874.156 -9546334.137 10 0 60893 27000.00000 0 24376148.433 3844437.746 -6526966.276 10 0 60893 27900.00000 0 25015338.663 3827263.047 -3381058.106 10 0 60893 28800.00000 0 25266958.589 3693764.186 -169635.390 10 0 60893 29700.00000 0 25115739.444 3497944.526 3045079.748 10 0 60893 30600.00000 0 24559701.191 3295874.286 6200867.142 10 0 60893 31500.00000 0 23610267.096 3143089.486 9236701.857 10 0 60893 32400.00000 0 22291839.764 3092021.525 12093920.164 10 0 60893 33300.00000 0 20640857.296 3189564.911 14717336.891 10 0 60893 34200.00000 0 18704369.457 3474884.495 17056293.909 10 0 60893 35100.00000 0 16538192.968 3977553.361 19065621.185 10 0 60893 36000.00000 0 14204721.945 4716098.709 20706493.512 10 0 60893 36900.00000 0 11770483.178 5697016.305 21947167.972 10 0 60893 37800.00000 0 9303535.968 6914294.913 22763589.313 10 0 60893 38700.00000 0 6870822.368 8349471.470 23139852.577 10 0 60893 39600.00000 0 4535575.592 9972216.214 23068514.578 10 0 60893 40500.00000 0 2354892.081 11741425.514 22550748.197 10 0 60893 41400.00000 0 377566.229 13606779.453 21596335.861 10 0 60893 42300.00000 0 -1357723.486 15510702.015 20223501.130 10 0 60893 43200.00000 0 -2823802.214 17390644.974 18458579.900 10 0 60893 44100.00000 0 -4005902.558 19181602.669 16335535.529 10 0 60893 45000.00000 0 -4902046.278 20818754.545 13895325.001 10 0 60893 45900.00000 0 -5522887.040 22240126.153 11185126.206 10 0 60893 46800.00000 0 -5891019.687 23389157.491 8257439.319 10 0 60893 47700.00000 0 -6039783.949 24217070.361 5169078.214 10 0 60893 48600.00000 0 -6011612.089 24684933.954 1980070.526 10 0 60893 49500.00000 0 -5855989.820 24765339.722 -1247512.522 10 0 60893 50400.00000 0 -5627116.805 24443612.623 -4450773.342 10 0 60893 51300.00000 0 -5381366.624 23718505.137 -7567227.491 10 0 60893 52200.00000 0 -5174655.268 22602342.448 -10536039.774 10 0 60893 53100.00000 0 -5059831.733 21120610.704 -13299230.898 10 0 60893 54000.00000 0 -5084203.713 19311004.394 -15802829.076 10 0 60893 54900.00000 0 -5287305.777 17221972.318 -17997942.133 10 0 60893 55800.00000 0 -5699007.025 14910823.407 -19841727.364 10 0 60893 56700.00000 0 -6338040.439 12441472.697 -21298238.836 10 0 60893 57600.00000 0 -7211017.752 9881923.145 -22339134.701 10 0 60893 58500.00000 0 -8311972.543 7301590.192 -22944230.283 10 0 60893 59400.00000 0 -9622451.229 4768582.316 -23101886.281 10 0 60893 60300.00000 0 -11112148.039 2347052.225 -22809225.096 10 0 60893 61200.00000 0 -12740056.590 94729.821 -22072172.008 10 0 60893 62100.00000 0 -14456088.681 -1939260.289 -20905321.611 10 0 60893 63000.00000 0 -16203091.188 -3716206.637 -19331633.515 10 0 60893 63900.00000 0 -17919175.207 -5209170.297 -17381964.668 10 0 60893 64800.00000 0 -19540258.734 -6403841.458 -15094448.886 10 0 60893 65700.00000 0 -21002715.553 -7298860.284 -12513736.964 10 0 60893 66600.00000 0 -22246018.903 -7905591.828 -9690113.408 10 0 60893 67500.00000 0 -23215269.243 -8247367.747 -6678507.964 10 0 60893 68400.00000 0 -23863500.739 -8358229.787 -3537421.923 10 0 60893 69300.00000 0 -24153670.753 -8281230.579 -327790.600 10 0 60893 70200.00000 0 -24060250.310 -8066365.417 2888195.741 10 0 60893 71100.00000 0 -23570350.349 -7768223.573 6048289.803 10 0 60893 72000.00000 0 -22684338.117 -7443458.828 9091381.235 10 0 60893 72900.00000 0 -21415919.222 -7148185.830 11958664.422 10 0 60893 73800.00000 0 -19791682.868 -6935411.377 14594758.667 10 0 60893 74700.00000 0 -17850129.751 -6852607.774 16948760.505 10 0 60893 75600.00000 0 -15640223.024 -6939529.146 18975209.459 10 0 60893 76500.00000 0 -13219521.936 -7226361.303 20634950.296 10 0 60893 77400.00000 0 -10651974.408 -7732281.910 21895876.716 10 0 60893 78300.00000 0 -8005458.419 -8464490.946 22733543.553 10 0 60893 79200.00000 0 -5349171.983 -9417752.243 23131636.706 10 0 60893 80100.00000 0 -2750977.632 -10574466.230 23082292.289 10 0 60893 81000.00000 0 -274809.175 -11905272.433 22586258.822 10 0 60893 81900.00000 0 2021753.797 -13370158.772 21652898.720 10 0 60893 82800.00000 0 4089644.616 -14920033.862 20300027.848 10 0 60893 83700.00000 0 5890112.823 -16498699.365 18553594.529 10 0 60893 84600.00000 0 7396097.466 -18045142.531 16447202.165 10 0 60893 85500.00000 0 8593112.945 -19496055.161 14021482.446 10 0 60894 0.00000 0 9479609.694 -20788474.933 11323329.347 10 0 60894 900.00000 0 10066793.978 -21862439.687 8405005.265 10 0 60894 1800.00000 0 10377912.115 -22663541.307 5323138.769 10 0 60894 2700.00000 0 10447029.782 -23145273.091 2137627.669 10 0 60894 3600.00000 0 10317355.893 -23271068.158 -1089528.097 10 0 60894 4500.00000 0 10039182.176 -23015941.358 -4295441.992 10 0 60894 5400.00000 0 9667525.903 -22367662.641 -7417579.945 10 0 60894 6300.00000 0 9259576.678 -21327409.728 -10394997.270 10 0 60894 7200.00000 0 8872057.073 -19909870.126 -13169547.389 10 0 60894 8100.00000 0 8558611.094 -18142786.325 -15687036.733 10 0 60894 9000.00000 0 8367333.479 -16065962.055 -17898301.273 10 0 60894 9900.00000 0 8338546.813 -13729770.938 -19760181.849 10 0 60894 10800.00000 0 8502922.707 -11193230.354 -21236377.860 10 0 60894 11700.00000 0 8880028.189 -8521722.039 -22298161.723 10 0 60894 12600.00000 0 9477359.876 -5784456.050 -22924939.725 10 0 60894 13500.00000 0 10289907.220 -3051785.339 -23104648.422 10 0 60894 14400.00000 0 11300263.133 -392484.243 -22833979.431 10 0 60894 15300.00000 0 12479276.676 2128894.798 -22118429.139 10 0 60894 16200.00000 0 13787219.258 4454475.898 -20972173.589 10 0 60894 17100.00000 0 15175413.968 6535223.934 -19417772.344 10 0 60894 18000.00000 0 16588258.078 8332729.275 -17485708.575 10 0 60894 18900.00000 0 17965552.421 9820540.584 -15213775.753 10 0 60894 19800.00000 0 19245038.646 10984992.574 -12646324.240 10 0 60894 20700.00000 0 20365037.061 11825497.173 -9833383.685 10 0 60894 21600.00000 0 21267073.942 12354289.126 -6829679.306 10 0 60894 22500.00000 0 21898388.176 12595639.971 -3693561.965 10 0 60894 23400.00000 0 22214212.583 12584576.347 -485873.365 10 0 60894 24300.00000 0 22179735.147 12365159.036 2731231.394 10 0 60894 25200.00000 0 21771659.085 11988396.996 5895481.217 10 0 60894 26100.00000 0 20979297.666 11509885.359 8945683.607 10 0 60894 27000.00000 0 19805159.100 10987267.218 11822894.166 10 0 60894 27900.00000 0 18264997.970 10477625.792 14471539.551 10 0 60894 28800.00000 0 16387331.555 10034915.838 16840473.553 10 0 60894 29700.00000 0 14212441.174 9707541.116 18883947.549 10 0 60894 30600.00000 0 11790899.483 9536178.329 20562478.244 10 0 60894 31500.00000 0 9181683.732 9551937.617 21843597.578 10 0 60894 32400.00000 0 6449951.518 9774935.821 22702471.720 10 0 60894 33300.00000 0 3664569.094 10213341.872 23122378.285 10 0 60894 34200.00000 0 895492.218 10862934.538 23095033.106 10 0 60894 35100.00000 0 -1788894.409 11707191.937 22620760.304 10 0 60894 36000.00000 0 -4324371.225 12717910.734 21708501.755 10 0 60894 36900.00000 0 -6653305.758 13856331.193 20375664.603 10 0 60894 37800.00000 0 -8726803.333 15074723.489 18647808.106 10 0 60894 38700.00000 0 -10506497.968 16318371.378 16558173.783 10 0 60894 39600.00000 0 -11965908.923 17527872.350 14147065.749 10 0 60894 40500.00000 0 -13091305.894 18641659.618 11461091.009 10 0 60894 41400.00000 0 -13882045.715 19598641.054 8552272.399 10 0 60894 42300.00000 0 -14350365.275 20340844.359 5477049.879 10 0 60894 43200.00000 0 -14520638.158 20815956.413 2295188.513 10 0 60894 44100.00000 0 -14428125.310 20979648.247 -931385.970 10 0 60894 45000.00000 0 -14117271.874 20797585.375 -4139800.983 10 0 60894 45900.00000 0 -13639622.161 20247035.964 -7267475.659 10 0 60894 46800.00000 0 -13051441.599 19318006.113 -10253358.538 10 0 60894 47700.00000 0 -12411147.591 18013851.599 -13039138.302 10 0 60894 48600.00000 0 -11776659.883 16351337.917 -15570401.912 10 0 60894 49500.00000 0 -11202784.755 14360144.292 -17797715.527 10 0 60894 50400.00000 0 -10738745.986 12081831.435 -19677605.277 10 0 60894 51300.00000 0 -10425969.190 9568316.044 -21173417.323 10 0 60894 52200.00000 0 -10296214.915 6879916.289 -22256039.471 10 0 60894 53100.00000 0 -10370140.607 4083050.947 -22904469.785 10 0 60894 54000.00000 0 -10656352.727 1247689.463 -23106221.182 10 0 60894 54900.00000 0 -11150988.912 -1555339.486 -22857554.675 10 0 60894 55800.00000 0 -11837847.118 -4257067.701 -22163537.602 10 0 60894 56700.00000 0 -12689055.085 -6793021.570 -21037926.946 10 0 60894 57600.00000 0 -13666250.423 -9105660.953 -19502881.370 10 0 60894 58500.00000 0 -14722219.910 -11146521.902 -17588509.064 10 0 60894 59400.00000 0 -15802927.330 -12877975.427 -15332261.647 10 0 60894 60300.00000 0 -16849843.057 -14274531.064 -12778187.276 10 0 60894 61200.00000 0 -17802476.165 -15323633.457 -9976058.762 10 0 60894 62100.00000 0 -18601001.806 -16025921.696 -6980394.644 10 0 60894 63000.00000 0 -19188873.103 -16394943.730 -3849393.071 10 0 60894 63900.00000 0 -19515307.882 -16456340.875 -643799.737 10 0 60894 64800.00000 0 -19537546.374 -16246539.403 2574267.931 10 0 60894 65700.00000 0 -19222785.938 -15811006.370 5742517.657 10 0 60894 66600.00000 0 -18549712.717 -15202144.579 8799677.501 10 0 60894 67500.00000 0 -17509567.064 -14476915.967 11686667.044 10 0 60894 68400.00000 0 -16106699.035 -13694293.423 14347723.055 10 0 60894 69300.00000 0 -14358591.247 -12912647.560 16731459.272 10 0 60894 70200.00000 0 -12295348.223 -12187177.114 18791841.439 10 0 60894 71100.00000 0 -9958672.914 -11567489.408 20489060.478 10 0 60894 72000.00000 0 -7400371.876 -11095430.880 21790288.526 10 0 60894 72900.00000 0 -4680449.433 -10803257.252 22670304.678 10 0 60894 73800.00000 0 -1864867.698 -10712219.002 23111979.460 10 0 60894 74700.00000 0 976937.225 -10831620.940 23106609.230 10 0 60894 75600.00000 0 3774682.601 -11158395.493 22654094.127 10 0 60894 76500.00000 0 6459903.712 -11677208.469 21762955.538 10 0 60894 77400.00000 0 8968547.562 -12361094.424 20450191.603 10 0 60894 78300.00000 0 11243389.790 -13172597.031 18740971.889 10 0 60894 79200.00000 0 13236175.508 -14065368.917 16668175.069 10 0 60894 80100.00000 0 14909395.372 -14986166.058 14271776.367 10 0 60894 81000.00000 0 16237622.587 -15877154.884 11598094.365 10 0 60894 81900.00000 0 17208354.176 -16678436.468 8698909.776 10 0 60894 82800.00000 0 17822320.068 -17330682.067 5630471.707 10 0 60894 83700.00000 0 18093245.680 -17777768.710 2452409.676 10 0 60894 84600.00000 0 18047076.744 -17969302.456 -773427.858 10 0 60894 85500.00000 0 17720698.067 -17862920.874 -3984185.495 10 0 60895 0.00000 0 17160199.952 -17426275.015 -7117238.597 10 0 60895 900.00000 0 16418765.359 -16638603.963 -10111432.761 10 0 60895 1800.00000 0 15554268.806 -15491833.202 -12908294.800 10 0 60895 2700.00000 0 14626688.982 -13991146.936 -15453195.184 10 0 60895 3600.00000 0 13695447.088 -12155008.462 -17696433.006 10 0 60895 4500.00000 0 12816785.302 -10014625.917 -19594222.141 10 0 60895 5400.00000 0 12041298.252 -7612884.974 -21109557.636 10 0 60895 6300.00000 0 11411723.592 -5002792.990 -22212944.423 10 0 60895 7200.00000 0 10961086.234 -2245500.230 -22882973.670 10 0 60895 8100.00000 0 10711275.225 592018.291 -23106735.545 10 0 60895 9000.00000 0 10672113.262 3439522.510 -22880060.919 10 0 60895 9900.00000 0 10840957.352 6226200.738 -22207588.125 10 0 60895 10800.00000 0 11202846.177 8883383.805 -21102654.737 10 0 60895 11700.00000 0 11731186.221 11347166.562 -19587017.805 10 0 60895 12600.00000 0 12388945.765 13560827.782 -17690409.471 10 0 60895 13500.00000 0 13130304.430 15476948.597 -15449938.089 10 0 60895 14400.00000 0 13902686.845 17059142.764 -12909347.857 10 0 60895 15300.00000 0 14649093.154 18283328.737 -10118152.634 10 0 60895 16200.00000 0 15310626.974 19138493.099 -7130661.838 10 0 60895 17100.00000 0 15829113.579 19626916.348 -4004918.152 10 0 60895 18000.00000 0 16149697.861 19763854.587 -801568.253 10 0 60895 18900.00000 0 16223312.937 19576693.267 2417311.276 10 0 60895 19800.00000 0 16008916.208 19103610.923 5589410.229 10 0 60895 20700.00000 0 15475399.773 18391810.818 8653380.461 10 0 60895 21600.00000 0 14603095.962 17495395.940 11550008.657 10 0 60895 22500.00000 0 13384815.740 16472976.960 14223344.656 10 0 60895 23400.00000 0 11826377.104 15385113.287 16621764.871 10 0 60895 24300.00000 0 9946601.569 14291693.651 18698951.894 10 0 60895 25200.00000 0 7776778.465 13249364.671 20414773.046 10 0 60895 26100.00000 0 5359618.359 12309113.530 21736042.527 10 0 60895 27000.00000 0 2747737.525 11514104.323 22637153.876 10 0 60895 27900.00000 0 1734.187 10897857.184 23100571.651 10 0 60895 28800.00000 0 -2812066.179 10482845.374 23117173.418 10 0 60895 29700.00000 0 -5624105.794 10279568.547 22686435.530 10 0 60895 30600.00000 0 -8364229.157 10286141.212 21816458.571 10 0 60895 31500.00000 0 -10964350.520 10488414.475 20523830.824 10 0 60895 32400.00000 0 -13361045.667 10860627.417 18833330.776 10 0 60895 33300.00000 0 -15497961.821 11366562.644 16777472.389 10 0 60895 34200.00000 0 -17327946.114 11961159.513 14395899.695 10 0 60895 35100.00000 0 -18814803.934 12592519.108 11734640.233 10 0 60895 36000.00000 0 -19934613.041 13204218.137 8845229.736 10 0 60895 36900.00000 0 -20676537.277 13737835.107 5783723.482 10 0 60895 37800.00000 0 -21043104.243 14135582.340 2609612.417 10 0 60895 38700.00000 0 -21049933.770 14342931.930 -615335.286 10 0 60895 39600.00000 0 -20724927.268 14311123.086 -3828284.371 10 0 60895 40500.00000 0 -20106951.248 13999442.587 -6966569.856 10 0 60895 41400.00000 0 -19244070.265 13377179.145 -9968936.025 10 0 60895 42300.00000 0 -18191404.279 12425166.108 -12776751.001 10 0 60895 43200.00000 0 -17008701.977 11136844.350 -15335171.151 10 0 60895 44100.00000 0 -15757734.098 9518797.930 -17594230.623 10 0 60895 45000.00000 0 -14499618.759 7590737.794 -19509832.837 10 0 60895 45900.00000 0 -13292193.658 5384932.808 -21044623.164 10 0 60895 46800.00000 0 -12187547.837 2945111.248 -22168724.731 10 0 60895 47700.00000 0 -11229818.498 324878.775 -22860322.488 10 0 60895 48600.00000 0 -10453346.529 -2414280.419 -23106084.182 10 0 60895 49500.00000 0 -9881268.560 -5205334.916 -22901410.499 10 0 60895 50400.00000 0 -9524604.223 -7978271.505 -22250510.405 10 0 60895 51300.00000 0 -9381875.750 -10662786.846 -21166301.386 10 0 60895 52200.00000 0 -9439274.081 -13190992.614 -19670137.897 10 0 60895 53100.00000 0 -9671362.273 -15500021.197 -17791374.800 10 0 60895 54000.00000 0 -10042284.193 -17534423.863 -15566775.728 10 0 60895 54900.00000 0 -10507425.214 -19248262.448 -13039779.291 10 0 60895 55800.00000 0 -11015452.834 -20606808.994 -10259638.637 10 0 60895 56700.00000 0 -11510649.426 -21587784.566 -7280452.211 10 0 60895 57600.00000 0 -11935437.593 -22182088.064 -4160105.305 10 0 60895 58500.00000 0 -12232990.924 -22393987.269 -959143.590 10 0 60895 59400.00000 0 -12349820.022 -22240766.879 2260399.277 10 0 60895 60300.00000 0 -12238225.143 -21751850.754 5436197.340 10 0 60895 61200.00000 0 -11858512.940 -20967437.204 8506828.541 10 0 60895 62100.00000 0 -11180884.937 -19936705.968 11412949.083 10 0 60895 63000.00000 0 -10186919.352 -18715672.813 14098424.362 10 0 60895 63900.00000 0 -8870584.799 -17364781.664 16511395.979 10 0 60895 64800.00000 0 -7238743.819 -15946334.494 18605265.836 10 0 60895 65700.00000 0 -5311124.966 -14521865.280 20339579.991 10 0 60895 66600.00000 0 -3119763.879 -13149566.333 21680796.838 10 0 60895 67500.00000 0 -707935.148 -11881872.729 22602926.230 10 0 60895 68400.00000 0 1871382.629 -10763304.059 23088028.315 10 0 60895 69300.00000 0 4557447.348 -9828652.175 23126563.088 10 0 60895 70200.00000 0 7284021.743 -9101589.613 22717584.002 10 0 60895 71100.00000 0 9981878.414 -8593756.404 21868771.368 10 0 60895 72000.00000 0 12581440.340 -8304363.700 20596303.795 10 0 60895 72900.00000 0 15015449.639 -8220331.617 18924568.534 10 0 60895 73800.00000 0 17221555.512 -8316956.877 16885714.303 10 0 60895 74700.00000 0 19144714.707 -8559083.876 14519053.028 10 0 60895 75600.00000 0 20739304.764 -8902731.706 11870319.871 10 0 60895 76500.00000 0 21970861.325 -9297110.161 8990803.809 10 0 60895 77400.00000 0 22817365.700 -9686940.862 5936364.067 10 0 60895 78300.00000 0 23270027.170 -10014985.935 2766350.369 10 0 60895 79200.00000 0 23333525.429 -10224677.054 -457552.403 10 0 60895 80100.00000 0 23025701.270 -10262732.484 -3672532.414 10 0 60895 81000.00000 0 22376707.222 -10081649.467 -6815887.481 10 0 60895 81900.00000 0 21427653.082 -9641963.943 -9826264.586 10 0 60895 82800.00000 0 20228803.337 -8914179.114 -12644876.223 10 0 60895 83700.00000 0 18837403.045 -7880278.303 -15216667.840 10 0 60895 84600.00000 0 17315225.012 -6534755.352 -17491411.572 10 0 60895 85500.00000 0 15725943.357 -4885116.668 -19424703.039 10 0 60896 0.00000 0 14132446.130 -2951832.082 -20978840.155 10 0 60896 900.00000 0 12594201.157 -767734.306 -22123566.515 10 0 60896 1800.00000 0 11164789.674 1623105.627 -22836662.324 10 0 60896 2700.00000 0 9889709.694 4166983.130 -23104374.137 10 0 60896 3600.00000 0 8804543.951 6802574.793 -22921673.291 10 0 60896 4500.00000 0 7933568.183 9463278.911 -22292339.802 10 0 60896 5400.00000 0 7288857.235 12079783.036 -21228871.072 10 0 60896 6300.00000 0 6869924.712 14582750.579 -19752218.581 10 0 60896 7200.00000 0 6663909.038 16905513.949 -17891359.125 10 0 60896 8100.00000 0 6646295.408 18986661.876 -15682710.449 10 0 60896 9000.00000 0 6782140.533 20772413.598 -13169404.009 10 0 60896 9900.00000 0 7027746.000 22218681.909 -10400430.307 10 0 60896 10800.00000 0 7332707.436 23292740.636 -7429674.497 10 0 60896 11700.00000 0 7642251.310 23974428.995 -4314861.822 10 0 60896 12600.00000 0 7899759.594 24256844.860 -1116434.001 10 0 60896 13500.00000 0 8049375.196 24146500.460 2103621.402 10 0 60896 14400.00000 0 8038578.279 23662936.390 5282965.982 10 0 60896 15300.00000 0 7820625.309 22837812.194 8360107.105 10 0 60896 16200.00000 0 7356748.910 21713513.201 11275573.777 10 0 60896 17100.00000 0 6618026.892 20341332.913 13973050.111 10 0 60896 18000.00000 0 5586842.777 18779307.298 16400445.882 10 0 60896 18900.00000 0 4257877.148 17089791.155 18510885.055 10 0 60896 19800.00000 0 2638588.411 15336876.783 20263594.915 10 0 60896 20700.00000 0 749162.412 13583761.232 21624680.240 10 0 60896 21600.00000 0 -1378068.098 11890170.182 22567769.031 10 0 60896 22500.00000 0 -3699711.794 10309943.907 23074518.475 10 0 60896 23400.00000 0 -6162871.916 8888884.246 23134971.991 10 0 60896 24300.00000 0 -8707102.441 7662950.832 22747760.623 10 0 60896 25200.00000 0 -11266689.018 6656880.853 21920144.358 10 0 60896 26100.00000 0 -13773162.810 5883289.616 20667891.497 10 0 60896 27000.00000 0 -16157945.432 5342289.708 19014996.838 10 0 60896 27900.00000 0 -18355017.157 5021645.517 16993242.080 10 0 60896 28800.00000 0 -20303498.659 4897457.889 14641604.762 10 0 60896 29700.00000 0 -21950039.299 4935351.626 12005524.968 10 0 60896 30600.00000 0 -23250911.995 5092117.303 9136041.912 10 0 60896 31500.00000 0 -24173726.023 5317739.445 6088815.543 10 0 60896 32400.00000 0 -24698684.459 5557726.063 2923051.063 10 0 60896 33300.00000 0 -24819331.524 5755641.161 -299653.263 10 0 60896 34200.00000 0 -24542756.423 5855732.251 -3516512.281 10 0 60896 35100.00000 0 -23889243.324 5805540.108 -6664789.774 10 0 60896 36000.00000 0 -22891380.809 5558378.071 -9683038.446 10 0 60896 36900.00000 0 -21592667.629 5075573.179 -12512318.017 10 0 60896 37800.00000 0 -20045673.465 4328371.411 -15097365.624 10 0 60896 38700.00000 0 -18309832.841 3299423.528 -17387693.713 10 0 60896 39600.00000 0 -16448966.370 1983786.139 -19338592.046 10 0 60896 40500.00000 0 -14528635.259 389393.614 -20912012.823 10 0 60896 41400.00000 0 -12613442.080 -1463020.585 -22077320.566 10 0 60896 42300.00000 0 -10764392.877 -3540550.702 -22811891.578 10 0 60896 43200.00000 0 -9036432.593 -5799267.501 -23101551.253 10 0 60896 44100.00000 0 -7476257.870 -8185840.653 -22940841.165 10 0 60896 45000.00000 0 -6120498.895 -10639565.972 -22333111.565 10 0 60896 45900.00000 0 -4994345.661 -13094711.833 -21290438.625 10 0 60896 46800.00000 0 -4110674.613 -15483085.771 -19833369.418 10 0 60896 47700.00000 0 -3469710.094 -17736713.293 -17990501.040 10 0 60896 48600.00000 0 -3059232.028 -19790516.683 -15797903.564 10 0 60896 49500.00000 0 -2855318.167 -21584882.014 -13298399.423 10 0 60896 50400.00000 0 -2823586.679 -23068007.754 -10540714.562 10 0 60896 51300.00000 0 -2920884.019 -24197938.000 -7578518.938 10 0 60896 52200.00000 0 -3097344.630 -24944196.980 -4469375.870 10 0 60896 53100.00000 0 -3298733.854 -25288958.455 -1273621.262 10 0 60896 54000.00000 0 -3468974.108 -25227703.275 1946805.262 10 0 60896 54900.00000 0 -3552747.292 -24769339.805 5129554.712 10 0 60896 55800.00000 0 -3498063.779 -23935784.192 8213065.800 10 0 60896 56700.00000 0 -3258690.286 -22761019.683 11137742.315 10 0 60896 57600.00000 0 -2796335.271 -21289675.462 13847089.133 10 0 60896 58500.00000 0 -2082500.846 -19575184.902 16288786.274 10 0 60896 59400.00000 0 -1099924.258 -17677599.974 18415681.825 10 0 60896 60300.00000 0 156451.084 -15661152.137 20186686.282 10 0 60896 61200.00000 0 1679015.750 -13591660.043 21567552.650 10 0 60896 62100.00000 0 3447565.522 -11533890.206 22531528.736 10 0 60896 63000.00000 0 5429902.169 -9548978.480 23059870.180 10 0 60896 63900.00000 0 7582940.733 -7692017.663 23142204.988 10 0 60896 64800.00000 0 9854279.786 -6009909.770 22776742.670 10 0 60896 65700.00000 0 12184172.231 -4539570.991 21970323.481 10 0 60896 66600.00000 0 14507817.626 -3306563.238 20738305.728 10 0 60896 67500.00000 0 16757883.481 -2324209.086 19104291.766 10 0 60896 68400.00000 0 18867152.983 -1593227.398 17099695.980 10 0 60896 69300.00000 0 20771190.513 -1101905.694 14763160.898 10 0 60896 70200.00000 0 22410914.745 -826803.232 12139830.536 10 0 60896 71100.00000 0 23734971.864 -733956.526 9280492.955 10 0 60896 72000.00000 0 24701808.832 -780537.747 6240607.041 10 0 60896 72900.00000 0 25281358.336 -916896.875 3079231.256 10 0 60896 73800.00000 0 25456262.714 -1088901.639 -142125.338 10 0 60896 74700.00000 0 25222583.173 -1240475.815 -3360707.166 10 0 60896 75600.00000 0 24589962.302 -1316227.299 -6513747.084 10 0 60896 76500.00000 0 23581231.150 -1264052.792 -9539706.732 10 0 60896 77400.00000 0 22231476.100 -1037606.355 -12379496.240 10 0 60896 78300.00000 0 20586604.164 -598524.566 -14977647.528 10 0 60896 79200.00000 0 18701467.188 81688.773 -17283416.250 10 0 60896 80100.00000 0 16637624.630 1020200.737 -19251789.000 10 0 60896 81000.00000 0 14460840.220 2221874.271 -20844374.592 10 0 60896 81900.00000 0 12238419.217 3678823.000 -22030160.947 10 0 60896 82800.00000 0 10036499.602 5370515.711 -22786122.217 10 0 60896 83700.00000 0 7917412.145 7264426.634 -23097664.245 10 0 60896 84600.00000 0 5937220.838 9317204.093 -22958900.109 10 0 60896 85500.00000 0 4143546.939 11476307.897 -22372751.178 99